STARLINK-33632, 63577

Orbit data source: Space-Track

STARLINK-33632, 63577 is a payload satellite owned by SpaceX/Seattle (US) in LEO that was launched on Mon, 14 Apr 2025 UTC via an FALCON 9 launch vehicle from the Air Force Eastern Test Range (AFETR). Payload-class satellites include a variety of spacecraft equipped with specific instruments for various scientific and technological missions. These include communications satellites like Starlink; space stations such as the ISS; scientific satellites like the Hubble; Earth observation satellites from companies like Planet Labs, Umbra, and HawkEye 360; GPS; miniature CubeSats for education and research; and military/defense satellites.

Loading next visibility...
Identifier
63577, 2025-076J
Orbit
LEO
Last TLE update
7 hours ago
Origin
Manufacturer
SpaceX/Seattle
Mission
Operational Commercial Communications
Bus & Motor
STARLINK V2MO, Unknown motor
Mass
575 kg wet, ~530 kg dry
Launch date (UTC)
2025-04-14 (3 months ago)
Launch vehicle
FALCON 9
Launch site
Air Force Eastern Test Range (AFETR)
Object type
Payload
Rocket body
Debris
Shape & HBR
Box + 1 Pan, 29 m
Radar Cross Section
41.120 m², Large (>1 m²)

Expand to show TLE details & history

TLE from 7 hours ago
0 STARLINK-33632
1 63577U 25076J   25192.19487510  .00007272  00000-0  27350-3 0  9990
2 63577  43.0016 245.8126 0001454 271.0292  89.0393 15.27580624 14848
Epoch: 2025-07-11T04:40Z
TLE epoch observation values (Epoch: 2025-07-11T04:40:37.208Z)
Latitude
-0.00003°
Longitude
-113.69276°
Altitude
482.806 km
Speed
7.626 km/s
True Right ascension
16h 23m 15s
True Declination
0° 00' 00"
Sunlit
Object was in full shadow at epoch
Visualization orbit readout
Latitude
-26.57011°
Longitude
96.83269°
Altitude
489.144 km
Speed
7.621 km/s
Apparent Right ascension
08h 54m 46s
Apparent Declination
-41° 28' 16"
Sunlit
Object is in daylight
Visualization observer readout
Local Sidereal Time
00:13:03
Azimuth
108.977° ESE
Elevation
-52.903°
Doppler factor
1
Orbital elements
Apogee altitude
485.99 km
Perigee altitude
483.994 km
Semi-major axis
6,863.129 km
Eccentricity
0.00015
Inclination
43.0016°
RAAN
245.8126°
Arg. of periapsis
271.0292°
True anomaly
Unknown
Mean anomaly
89.0393°
Eccentric anomaly
Unknown
Mean motion
3.81733 °/min
Orbital period
94.31 mins
BSTAR
0.0002735
Loading maneuver chart data...
Loading SW <> Apogee altitude chart data...
Loading historical data...
Loading historical data...
Loading historical data...
Loading historical data...
Loading historical data...
Loading historical data...
Loading historical data...

STARLINK-33632 Visibility forecast

Observer location: undefined°, undefined°

Span
Click to sort rows by Start time (UTC) header in descending order
Start Az.
Max El. time (UTC)
Max El. Az.
Max El.
End time (UTC)
End Az.
6 mins2025-07-11 13:00:56.927Z270.44° WNW2025-07-11 13:03:56.927Z207.021° SW26.79°2025-07-11 13:06:56.927Z150.275° SSE
4 mins2025-07-12 05:58:56.927Z173.918° S2025-07-12 05:59:56.927Z154.642° SSE17.663°2025-07-12 06:02:56.927Z99.738° ESE
5 mins2025-07-12 07:36:56.927Z243.775° WSW2025-07-12 07:38:56.927Z176.243° S44.529°2025-07-12 07:41:56.927Z73.64° E
5 mins2025-07-12 09:15:56.927Z287.938° WNW2025-07-12 09:17:56.927Z346.428° N38.084°2025-07-12 09:20:56.927Z71.111° E
6 mins2025-07-12 10:54:56.927Z292.11° WNW2025-07-12 10:56:56.927Z326.932° NNW42.629°2025-07-12 11:00:56.927Z100.771° ESE
|